This demonstration page uses our WeatherBlox Daily Observations layout. Learn more.

Hourly Observations for June 28, 2020

Temp ( °F °C ) Dew Point ( °F °C ) Humidity (%) Winds ( mph kmh ) Pressure ( in mb ) Visibility ( mi km ) Precip ( " mm )
12:15 am 00:15 Clear 77 25 68 20 74 74 Calm 29.8 1009 10 16.0934 0 0
12:35 am 00:35 Clear 77 25 68 20 74 74 Calm 29.81 1010 10 16.0934 0 0
12:55 am 00:55 Clear 77 25 68 20 74 74 Calm 29.81 1010 10 16.0934 0 0
1:15 am 01:15 Partly Cloudy 73 23 68 20 83 83 Calm 29.82 1010 10 16.0934 0 0
1:35 am 01:35 Mostly Cloudy 73 23 68 20 83 83 Calm 29.82 1010 10 16.0934 0 0
1:55 am 01:55 Partly Cloudy 75 24 68 20 78 78 NW 6 9 29.82 1010 10 16.0934 0 0
2:15 am 02:15 Clear 73 23 68 20 83 83 Calm 29.81 1009 10 16.0934 0 0
2:35 am 02:35 Clear 73 23 68 20 83 83 WNW 9 15 29.8 1009 10 16.0934 0 0
2:55 am 02:55 Clear 73 23 66 19 78 78 NW 6 9 29.8 1009 10 16.0934 0 0
3:15 am 03:15 Clear 73 23 68 20 83 83 NW 8 13 29.79 1009 10 16.0934 0 0
3:35 am 03:35 Clear 73 23 68 20 83 83 Calm 29.8 1009 10 16.0934 0 0
3:55 am 03:55 Clear 73 23 66 19 78 78 NNW 6 9 29.79 1009 10 16.0934 0 0
4:15 am 04:15 Clear 75 24 66 19 74 74 N 3 6 29.8 1009 10 16.0934 0 0
4:35 am 04:35 Clear 75 24 66 19 74 74 ESE 7 11 29.79 1009 10 16.0934 0 0
4:55 am 04:55 Clear 73 23 66 19 78 78 Calm 29.8 1009 10 16.0934 0 0
5:15 am 05:15 Partly Cloudy 70 21 68 20 94 94 Calm 29.8 1009 10 16.0934 0 0
5:35 am 05:35 Cloudy 73 23 68 20 83 83 Calm 29.8 1009 10 16.0934 0 0
5:55 am 05:55 Cloudy 72 22 68 20 88 88 Calm 29.8 1009 10 16.0934 0 0
6:15 am 06:15 Cloudy 72 22 68 20 88 88 W 5 7 29.81 1009 10 16.0934 0 0
6:35 am 06:35 Cloudy 72 22 68 20 88 88 WNW 5 7 29.81 1009 10 16.0934 0 0
6:55 am 06:55 Cloudy 73 23 68 20 83 83 Calm 29.81 1009 10 16.0934 0 0
7:15 am 07:15 Cloudy 73 23 68 20 83 83 W 3 6 29.82 1010 10 16.0934 0 0
7:35 am 07:35 Cloudy 73 23 68 20 83 83 Calm 29.82 1010 10 16.0934 0 0
7:55 am 07:55 Cloudy 73 23 68 20 83 83 Calm 29.82 1010 10 16.0934 0 0
8:15 am 08:15 Cloudy 73 23 68 20 83 83 Calm 29.83 1010 10 16.0934 0 0
8:35 am 08:35 Cloudy 73 23 68 20 83 83 Calm 29.83 1010 10 16.0934 0 0
8:55 am 08:55 Cloudy 73 23 70 21 89 89 Calm 29.82 1010 10 16.0934 0 0
9:15 am 09:15 Partly Cloudy 73 23 70 21 89 89 SW 3 6 29.83 1010 10 16.0934 0 0
9:35 am 09:35 Mostly Cloudy 75 24 70 21 83 83 Calm 29.83 1010 10 16.0934 0 0
9:55 am 09:55 Mostly Cloudy 79 26 70 21 74 74 SW 5 7 29.81 1010 10 16.0934 0 0
10:15 am 10:15 Mostly Cloudy 79 26 70 21 74 74 Calm 29.82 1010 10 16.0934 0 0
10:35 am 10:35 Cloudy 81 27 70 21 70 70 WNW 8 13 29.82 1010 10 16.0934 0 0
10:55 am 10:55 Partly Cloudy 81 27 70 21 70 70 WNW 9 15 29.82 1010 10 16.0934 0 0
11:15 am 11:15 Partly Cloudy 82 28 70 21 66 66 W 7 11 29.82 1010 10 16.0934 0 0
11:35 am 11:35 Partly Cloudy 82 28 72 22 70 70 W 8 13 29.81 1009 10 16.0934 0 0
11:55 am 11:55 Sunny 82 28 72 22 70 70 NW 10 17 29.81 1009 10 16.0934 0 0
12:15 pm 12:15 Partly Cloudy 84 29 72 22 66 66 W 8 13 29.81 1009 10 16.0934 0 0
12:35 pm 12:35 Partly Cloudy 84 29 72 22 66 66 W 9 15 29.8 1009 10 16.0934 0 0
12:55 pm 12:55 Partly Cloudy 84 29 72 22 66 66 W 8 13 29.8 1009 10 16.0934 0 0
1:15 pm 13:15 Partly Cloudy 84 29 72 22 66 66 W 7 11 29.79 1009 10 16.0934 0 0
1:35 pm 13:35 Partly Cloudy 84 29 72 22 66 66 W 8 13 29.78 1008 10 16.0934 0 0
1:55 pm 13:55 Partly Cloudy 84 29 72 22 66 66 W 9 15 29.78 1008 10 16.0934 0 0
2:15 pm 14:15 Mostly Cloudy 82 28 72 22 70 70 NW 9 15 29.78 1008 10 16.0934 0 0
2:35 pm 14:35 Mostly Cloudy 84 29 70 21 62 62 WNW 13 20 29.78 1008 10 16.0934 0 0
2:55 pm 14:55 Mostly Cloudy 84 29 72 22 66 66 WNW 12 19 29.77 1008 10 16.0934 0 0
3:15 pm 15:15 Mostly Cloudy 84 29 70 21 62 62 W 13 20 29.77 1008 10 16.0934 0 0
3:35 pm 15:35 Mostly Cloudy 82 28 70 21 66 66 WSW 6 9 29.76 1008 10 16.0934 0 0
3:55 pm 15:55 Mostly Cloudy 82 28 70 21 66 66 W 9 15 29.75 1007 10 16.0934 0 0
4:15 pm 16:15 Partly Cloudy 82 28 70 21 66 66 W 7 11 29.75 1007 10 16.0934 0 0
4:35 pm 16:35 Sunny 82 28 70 21 66 66 W 6 9 29.74 1007 10 16.0934 0 0
4:55 pm 16:55 Sunny 82 28 72 22 70 70 WSW 5 7 29.75 1007 10 16.0934 0 0
5:15 pm 17:15 Sunny 82 28 72 22 70 70 WSW 8 13 29.74 1007 10 16.0934 0 0
5:35 pm 17:35 Sunny 82 28 72 22 70 70 WSW 6 9 29.74 1007 10 16.0934 0 0
5:55 pm 17:55 Sunny 82 28 72 22 70 70 WSW 6 9 29.74 1007 10 16.0934 0 0
6:15 pm 18:15 Sunny 82 28 72 22 70 70 WSW 5 7 29.74 1007 10 16.0934 0 0
6:35 pm 18:35 Sunny 82 28 72 22 70 70 undefined N/A 29.74 1007 10 16.0934 0 0
6:55 pm 18:55 Sunny 82 28 72 22 70 70 SW 6 9 29.74 1007 10 16.0934 0 0
7:15 pm 19:15 Sunny 82 28 72 22 70 70 WSW 7 11 29.74 1007 10 16.0934 0 0
7:35 pm 19:35 Sunny 81 27 72 22 74 74 W 6 9 29.74 1007 10 16.0934 0 0
7:55 pm 19:55 Sunny 81 27 72 22 74 74 W 8 13 29.75 1008 10 16.0934 0 0
8:15 pm 20:15 Sunny 81 27 72 22 74 74 W 5 7 29.75 1008 10 16.0934 0 0
8:35 pm 20:35 Sunny 79 26 72 22 79 79 Calm 29.76 1008 10 16.0934 0 0
8:55 pm 20:55 Clear 79 26 72 22 79 79 W 5 7 29.76 1008 10 16.0934 0 0
9:15 pm 21:15 Clear 77 25 72 22 83 83 W 6 9 29.76 1008 10 16.0934 0 0
9:35 pm 21:35 Clear 77 25 72 22 83 83 WNW 6 9 29.77 1008 10 16.0934 0 0
9:55 pm 21:55 Clear 79 26 70 21 74 74 W 7 11 29.78 1009 10 16.0934 0 0
10:15 pm 22:15 Clear 79 26 70 21 74 74 WNW 8 13 29.78 1009 10 16.0934 0 0
10:35 pm 22:35 Partly Cloudy 77 25 70 21 79 79 W 3 6 29.78 1009 10 16.0934 0 0
10:55 pm 22:55 Partly Cloudy 77 25 70 21 79 79 Calm 29.78 1009 10 16.0934 0 0
11:15 pm 23:15 Mostly Cloudy 77 25 70 21 79 79 W 3 6 29.78 1009 10 16.0934 0 0
11:35 pm 23:35 Cloudy 77 25 70 21 79 79 Calm 29.78 1009 10 16.0934 0 0
11:55 pm 23:55 Cloudy 77 25 70 21 79 79 W 5 7 29.79 1009 10 16.0934 0 0

Powered by AerisWeather